Location: Allie Creek
(37.5926°N, 89.8526°W)
Time: 05:14:41
(UTC+00:00)

Cosmos 1655 Rocket - Pass Details

Date: 26 September 2023
Orbit: 969 x 1006 km, 83.0° (Epoch: 29 November)

Event Time Altitude Azimuth Distance (km) Brightness Sun altitude
Exits shadow 09:45:08 33° 190° (S) 1,633 4.9 -25.2°
Maximum altitude 09:48:17 84° 275° (W) 1,016 3.9 -24.6°
Drops below altitude 10° 09:54:44 10° 5° (N) 2,790 6.6 -23.4°
Sets 09:57:17 0° 6° (N) 3,743 7.4 -22.9°
